DW0395 Weather Reports


Display with metric or nautical units.
time (UTC)temp
F
wind
direction
speed
MPH
gust
MPH
rain 1hr
in
rain 24hr
in
rain mn
in
humidity
%
barometer
mb
20260507130537 56 55 2.0 4.0 0.00 0.00 0.00 90 1014.1
20260507125537 56 59 2.0 5.0 0.00 0.00 0.00 90 1014.0
20260507124538 56 54 2.0 5.0 0.00 0.00 0.00 89 1014.0
20260507123537 56 77 4.0 5.0 0.00 0.00 0.00 89 1013.9
20260507122538 56 69 2.0 5.0 0.00 0.00 0.00 89 1013.9
20260507121537 56 78 3.0 5.0 0.00 0.00 0.00 89 1014.0
20260507120538 56 78 4.0 5.0 0.00 0.00 0.00 92 1014.0
20260507115537 56 64 2.0 6.0 0.00 0.00 0.00 89 1013.9
20260507112537 56 82 4.0 5.0 0.00 0.00 0.00 89 1013.8
20260507111538 57 103 3.0 5.0 0.00 0.00 0.00 89 1013.9
20260507110538 57 44 2.0 4.0 0.00 0.00 0.00 89 1013.9
20260507105538 57 65 3.0 5.0 0.00 0.00 0.00 89 1014.1
20260507104538 57 82 3.0 5.0 0.00 0.00 0.00 89 1014.0
20260507103538 57 35 3.0 5.0 0.00 0.00 0.00 89 1014.2
20260507102538 57 47 2.0 5.0 0.00 0.00 0.00 89 1014.2
20260507101537 58 58 2.0 5.0 0.00 0.00 0.00 89 1014.2
20260507100538 58 81 3.0 3.0 0.00 0.00 0.00 88 1014.3
20260507095538 58 95 3.0 6.0 0.00 0.00 0.00 88 1014.3
20260507094538 58 71 1.0 6.0 0.00 0.00 0.00 88 1014.3
20260507093538 58 68 4.0 5.0 0.00 0.00 0.00 88 1014.4
20260507092538 58 74 1.0 4.0 0.00 0.00 0.00 88 1014.6
20260507090538 58 67 2.0 3.0 0.00 0.00 0.00 88 1014.7
20260507085537 58 67 0.0 4.0 0.00 0.00 0.00 88 1014.8
20260507084538 58 46 0.0 4.0 0.00 0.00 0.00 87 1014.9
20260507082538 58 36 3.0 4.0 0.00 0.00 0.00 87 1015.1
20260507080538 59 17 3.0 4.0 0.00 0.00 0.00 86 1015.2
20260507075537 59 5 2.0 4.0 0.00 0.00 0.00 86 1015.2
20260507074538 59 16 1.0 3.0 0.00 0.00 0.00 86 1015.2
20260507073538 60 65 2.0 3.0 0.00 0.00 0.00 86 1015.3
20260507071537 60 31 1.0 3.0 0.00 0.00 0.00 85 1015.2
20260507070538 60 31 2.0 3.0 0.00 0.00 0.00 85 1015.3
20260507065538 61 31 1.0 3.0 0.00 0.00 0.00 85 1015.4
20260507064538 61 31 1.0 3.0 0.00 0.00 0.00 85 1015.3
20260507063538 61 31 2.0 3.0 0.00 0.00 0.00 84 1015.3
20260507062538 62 31 2.0 3.0 0.00 0.00 0.00 85 1015.4
20260507061538 62 326 3.0 3.0 0.00 0.00 0.00 84 1015.4
20260507060538 62 326 2.0 2.0 0.00 0.00 0.00 84 1015.4
20260507054538 63 18 1.0 3.0 0.00 0.00 0.00 84 1015.4
20260507053538 63 26 2.0 3.0 0.00 0.00 0.00 85 1015.4
20260507051538 64 329 5.0 10.0 0.00 0.00 0.00 85 1015.3
20260507050538 64 275 4.0 8.0 0.00 0.00 0.00 85 1015.3
20260507045538 64 308 9.0 9.0 0.00 0.00 0.00 85 1015.4
20260507044538 64 286 3.0 9.0 0.00 0.00 0.00 85 1015.3
20260507043538 64 278 4.0 9.0 0.00 0.00 0.00 85 1015.2
20260507042538 64 306 3.0 10.0 0.00 0.00 0.00 85 1015.3
20260507041538 64 271 8.0 10.0 0.00 0.00 0.00 85 1015.2
20260507040538 64 286 4.0 9.0 0.00 0.00 0.00 85 1015.2
20260507033538 64 287 3.0 10.0 0.00 0.00 0.00 83 1014.9
20260507031538 64 302 6.0 10.0 0.00 0.00 0.00 84 1014.9
20260507030538 64 294 8.0 10.0 0.00 0.00 0.00 84 1014.9
20260507025538 64 290 10.0 10.0 0.00 0.00 0.00 84 1014.8
20260507024538 65 219 3.0 9.0 0.00 0.00 0.00 83 1014.7
20260507023538 65 281 4.0 9.0 0.00 0.00 0.00 83 1014.7
20260507021538 66 336 4.0 8.0 0.00 0.00 0.00 82 1014.5
20260507020538 66 278 8.0 8.0 0.00 0.00 0.00 82 1014.5
20260507015538 66 317 4.0 11.0 0.00 0.00 0.00 81 1014.4
20260507014538 67 286 8.0 11.0 0.00 0.00 0.00 81 1014.4
20260507013538 67 280 8.0 10.0 0.00 0.00 0.00 81 1014.4
20260507012538 67 301 9.0 13.0 0.00 0.00 0.00 81 1014.4
20260507005538 68 298 7.0 13.0 0.00 0.00 0.00 78 1014.1
20260507004538 68 267 8.0 13.0 0.00 0.00 0.00 76 1014.0
20260507003538 69 258 6.0 13.0 0.00 0.00 0.00 75 1014.1
20260507002538 68 268 10.0 14.0 0.00 0.00 0.00 77 1014.0
20260507001538 68 284 11.0 14.0 0.00 0.00 0.00 78 1014.0
20260507000538 68 272 10.0 13.0 0.00 0.00 0.00 78 1013.9
20260506234538 68 290 10.0 14.0 0.00 0.00 0.00 80 1013.9
20260506233538 68 267 12.0 14.0 0.00 0.00 0.00 79 1013.9
20260506232538 68 262 12.0 14.0 0.00 0.00 0.00 79 1013.9
20260506231538 68 286 9.0 13.0 0.00 0.00 0.00 79 1014.0
20260506230538 68 280 6.0 12.0 0.00 0.00 0.00 79 1014.0
20260506225538 68 258 8.0 16.0 0.00 0.00 0.00 80 1014.2
20260506224538 68 316 6.0 15.0 0.00 0.00 0.00 80 1014.3
20260506223538 68 287 10.0 15.0 0.00 0.00 0.00 79 1014.4
20260506221538 68 275 10.0 13.0 0.00 0.00 0.00 78 1014.6
20260506220538 68 273 11.0 12.0 0.00 0.00 0.00 78 1014.7
20260506215538 68 243 12.0 16.0 0.00 0.00 0.00 78 1014.7
20260506213538 68 284 10.0 13.0 0.00 0.00 0.00 77 1014.9
20260506212538 68 313 9.0 15.0 0.00 0.00 0.00 77 1015.1
20260506211538 68 269 10.0 15.0 0.00 0.00 0.00 78 1015.2
20260506210538 68 277 12.0 12.0 0.00 0.00 0.00 78 1015.2
20260506205538 68 275 12.0 13.0 0.00 0.00 0.00 77 1015.4
20260506204538 68 286 10.0 13.0 0.00 0.00 0.00 77 1015.5
20260506203538 68 254 8.0 12.0 0.00 0.00 0.00 76 1015.4
20260506202538 68 279 8.0 12.0 0.00 0.00 0.00 77 1015.4
20260506201538 68 244 10.0 12.0 0.00 0.00 0.00 78 1015.6
20260506200538 68 268 8.0 10.0 0.00 0.00 0.00 77 1015.7
20260506195538 68 263 10.0 14.0 0.00 0.00 0.00 78 1015.8
20260506194538 67 246 8.0 14.0 0.00 0.00 0.00 79 1015.9
20260506193538 67 275 9.0 13.0 0.00 0.00 0.00 79 1016.0
20260506192538 66 270 10.0 12.0 0.00 0.00 0.00 79 1016.0
20260506191538 66 254 10.0 11.0 0.00 0.00 0.00 78 1016.2
20260506190538 67 284 8.0 11.0 0.00 0.00 0.00 78 1016.3
20260506185538 66 275 9.0 11.0 0.00 0.00 0.00 79 1016.2
20260506184538 66 267 9.0 10.0 0.00 0.00 0.00 77 1016.3
20260506183538 66 248 6.0 9.0 0.00 0.00 0.00 78 1016.5
20260506181538 65 238 4.0 9.0 0.00 0.00 0.00 78 1016.5
20260506180538 66 220 3.0 8.0 0.00 0.00 0.00 79 1016.6
20260506175538 65 256 6.0 9.0 0.00 0.00 0.00 79 1016.7
20260506174538 65 254 5.0 9.0 0.00 0.00 0.00 79 1016.7
20260506173538 65 256 5.0 7.0 0.00 0.00 0.00 80 1016.6
20260506171538 64 257 3.0 6.0 0.00 0.00 0.00 80 1016.8
20260506170538 64 260 4.0 5.0 0.00 0.00 0.00 79 1016.8
20260506165538 64 250 4.0 5.0 0.00 0.00 0.00 80 1016.8
20260506164538 64 257 3.0 5.0 0.00 0.00 0.00 80 1016.9
20260506163538 63 265 3.0 4.0 0.00 0.00 0.00 81 1016.9
20260506161538 62 328 2.0 4.0 0.00 0.01 0.00 84 1016.8
20260506155538 60 78 2.0 6.0 0.00 0.01 0.00 86 1016.7
20260506154538 59 49 2.0 6.0 0.00 0.01 0.00 87 1016.7
20260506153538 59 69 4.0 6.0 0.00 0.01 0.00 88 1016.6
20260506152538 58 90 2.0 8.0 0.00 0.01 0.00 88 1016.7
20260506151538 57 82 3.0 8.0 0.00 0.01 0.00 88 1016.7
20260506145538 56 77 4.0 9.0 0.00 0.01 0.00 89 1016.7
20260506144538 55 72 4.0 9.0 0.00 0.01 0.00 89 1016.7
20260506143538 55 61 4.0 9.0 0.00 0.01 0.00 89 1016.7
20260506142538 54 90 3.0 9.0 0.00 0.01 0.00 89 1016.6
20260506141538 54 90 3.0 8.0 0.00 0.01 0.00 89 1016.5
20260506140538 53 77 7.0 8.0 0.00 0.01 0.00 89 1016.4
20260506135538 53 63 4.0 9.0 0.00 0.01 0.00 89 1016.4
20260506134538 53 88 3.0 9.0 0.00 0.01 0.00 89 1016.4
20260506133538 53 69 3.0 9.0 0.00 0.01 0.00 89 1016.1
20260506132538 53 44 4.0 9.0 0.00 0.01 0.00 88 1016.1
20260506131538 53 56 5.0 9.0 0.00 0.01 0.00 88 1016.2